Regional Weather Roundup
Issued by NWS

Home | Current Version | Previous Version | Graphics & Text | Print | Product List | Glossary Off
Versions: 1 2 3 4 5 6 7 8 9 10 11 12 13 14 15 16 17 18 19 20 21 22 23 24 25 26 27 28 29 30 31 32 33 34 35 36 37 38 39 40 41 42 43 44 45 46 47 48 49 50

000
ASUS43 KDMX 082303
RWRIA

WEATHER ROUNDUP FOR IOWA
NATIONAL WEATHER SERVICE DES MOINES IA
500 PM CST MON FEB 08 2016

NOTE: "FAIR" INDICATES FEW OR NO CLOUDS BELOW 12,000 FEET WITH NO
SIGNIFICANT WEATHER AND/OR OBSTRUCTIONS TO VISIBILITY.

* - THESE STATIONS ARE NOT NWS STATIONS...THUS NOT UNDER NWS
QUALITY CONTROL.  THEY ALSO DO NOT REPORT WEATHER SUCH
AS PRECIPITATION OR FOG.

IAZ001>003-012>014-020>022-031>034-043>046-090000-
   NORTHWEST IOWA

CITY           SKY/WX    TMP DP  RH WIND       PRES   REMARKS
CARROLL *      LGT SNOW  19  14  79 NW25G33   30.05R WCI   2
CHEROKEE *     PTCLDY    19  14  79 N14G26    30.08S WCI   6
DENISON *      CLOUDY    23  16  74 N21G30    30.06R WCI   8
LE MARS *      CLEAR     25  19  80 N16G29    30.12R WCI  12
ORANGE CITY *  MOCLDY    21  18  86 N16G26    30.07S WCI   7
SHELDON *      FLURRIES  18  16  93 N21G30    30.06S WCI   1
SIOUX CITY     CLEAR     28  18  66 N29       30.10R WCI  12
SPENCER        PTCLDY    18   9  68 NW24      30.06S WCI   0
STORM LAKE *   FLURRIES  18  14  86 N29       30.04F WCI  -2
$$

IAZ055>058-069>071-079>083-090>094-090000-
   SOUTHWEST IOWA

CITY           SKY/WX    TMP DP  RH WIND       PRES   REMARKS
ATLANTIC *     CLOUDY    23  16  74 N18       30.08S WCI   9
AUDUBON *      PTCLDY    21  16  79 NW16G28   30.06R WCI   7
CLARINDA *     CLOUDY    27  19  74 N17       30.11R WCI  14
COUNCIL BLFS * CLEAR     27  18  69 N28G38    30.07S WCI  11
CRESTON *      CLOUDY    21  12  68 NW30G38   30.04S WCI   3
HARLAN  *      FLURRIES  23  19  86 N20G25    30.11S WCI   8
LAMONI         CLOUDY    20  10  65 N23G39    30.03R WCI   3
RED OAK *      MIX PCPN  28  19  69 N16G25    30.10R WCI  17
SHENANDOAH *   PTCLDY    28  19  69 NW18G28   30.11S WCI  16
$$

IAZ047>049-059>061-072>074-084-090000-
   CENTRAL IOWA

CITY           SKY/WX    TMP DP  RH WIND       PRES   REMARKS
AMES           CLOUDY    17  10  74 NW31G39   30.01R WCI  -3
ANKENY *       FLURRIES  18  10  73 NW23G33   30.02S WCI   0
BOONE *        LGT SNOW  18  10  73 NW18G33   30.00R WCI   2
CHARITON *     LGT SNOW  18  10  73 NW25G33   30.01R WCI  -1
DES MOINES     FLURRIES  19  10  68 N17G32    30.02S WCI   4
GRINNELL*      FLURRIES  17  12  81 NW20G32   29.97R WCI   0
KNOXVILLE *    LGT SNOW  18  12  79 NW22G30   29.99R WCI   0
MARSHALLTOWN   CLOUDY    16   9  74 NW25G32   29.96S WCI  -3
NEWTON *       LGT SNOW  18  12  79 NW24G33   29.98S WCI   0
PELLA *        PTCLDY    18  10  73 NW31G40   29.99S WCI  -2
$$

IAZ004>006-015-016-023>025-035-036-090000-
   NORTH CENTRAL IOWA

CITY           SKY/WX    TMP DP  RH WIND       PRES   REMARKS
ALGONA *       LGT SNOW  16  12  86 NW31G38   29.99R WCI  -5
CLARION *      LGT SNOW  16  10  79 NW32G39   29.98S VSB 1   WCI  -5
ESTHERVILLE    MIX PCPN  16  10  77 NW30G41   30.02S WCI  -4
FORT DODGE *   CLOUDY    18   9  68 NW18G28   30.02S WCI   2
MASON CITY     LGT SNOW  14   9  80 NW25G36   29.95S WCI  -5
FOREST CITY *  LGT SNOW  16  12  86 NW23G32   29.95R WCI  -2
WEBSTER CITY * LGT SNOW  16  14  93 NW30G36   29.98S WCI  -4
IOWA FALLS *   CLOUDY    16  12  84 NW28G35   29.97S WCI  -3
$$

IAZ007>011-017>019-026>030-037>042-050>054-066-090000-
   NORTHEAST IOWA

CITY           SKY/WX    TMP DP  RH WIND       PRES   REMARKS
CEDAR RAPIDS   LGT SNOW  16  10  77 NW25G31   29.91R WCI  -3
CHARLES CITY * CLOUDY    14  10  85 NW21      29.92S FOG     WCI  -4
CLINTON *      CLOUDY    20  15  81 W22       29.84R WCI   3
DECORAH *      FLURRIES  14   7  73 NW21G30   29.86S WCI  -4
DUBUQUE        CLOUDY    18  10  71 NW21      29.83R WCI   1
MONTICELLO *   CLOUDY    16   9  73 NW22G29   29.87R WCI  -2
OELWEIN *      CLOUDY    14  10  85 NW22G29   29.90S HAZE    WCI  -4
WATERLOO       CLOUDY    15   7  70 NW25G33   29.92F WCI  -4
$$

IAZ064-065-067-068-078-090000-
   EAST CENTRAL IOWA

CITY           SKY/WX    TMP DP  RH WIND       PRES   REMARKS
DAVENPORT      CLOUDY    19  11  70 NW21G29   29.87R WCI   3
IOWA CITY      LGT SNOW  17   9  70 NW21G36   29.94R WCI   0
MT. PLEASANT * CLOUDY    21  12  68 NW21G28   29.94R WCI   6
MUSCATINE *    FLURRIES  19  10  68 NW20      29.93R WCI   4
QUAD CITIES    CLOUDY    20  11  68 NW17G32   29.87R WCI   5
$$

IAZ062-063-075>077-085>089-095>099-090000-
   SOUTHEAST IOWA

CITY           SKY/WX    TMP DP  RH WIND       PRES   REMARKS
BURLINGTON     FLURRIES  18  12  77 NW16G28   29.92R WCI   3
FAIRFIELD *    FLURRIES  18  10  73 NW28G35   29.94S WCI  -1
FORT MADISON * FLURRIES  18  10  73 NW26G36   29.93R WCI  -1
KEOKUK *       CLOUDY    19  10  68 NW17G29   29.95R WCI   4
OSKALOOSA *    CLOUDY    18  10  73 NW21G33   29.98R WCI   1
OTTUMWA        LGT SNOW  18  12  77 NW25G31   29.98  WCI   0
WASHINGTON *   LGT SNOW  18  10  73 NW25G36   29.95R WCI  -1
$$

ABBREVIATIONS USED IN REMARKS
   TC - TEMPERATURES IN CELSIUS
  WCI - WIND CHILL INDEX
   HX - HEAT INDEX
  VSB - VISIBILITY
$$





USA.gov is the U.S. government's official web portal to all federal, state and local government web resources and services.